Regional Weather Roundup
Issued by NWS

Home | Current Version | Previous Version | Text Only | Print | Product List | Glossary On
Versions: 1 2 3 4 5 6 7 8 9 10 11 12 13 14 15 16 17 18 19 20 21 22 23 24 25 26 27 28 29 30 31 32 33 34 35 36 37 38 39 40 41 42 43 44 45 46 47 48 49 50
000
ASUS45 KABQ 231410
RWRNM
NEW MEXICO REGIONAL WEATHER ROUNDUP
NATIONAL WEATHER SERVICE ALBUQUERQUE NM
800 AM MDT SAT MAY 23 2015

NOTE: "FAIR" MEANS FEW OR NO CLOUDS BELOW 12,000 FEET AGL WITH NO
       SIGNIFICANT WEATHER OR OBSTRUCTIONS TO VISION.

      THIS PRODUCT IS RELEASED AS TWO VERSIONS.  ONE VERSION NEAR
      THE TOP OF THE HOUR CONTAINING PRELIMINARY DATA FROM ALBUQUERQUE
      AND OTHER STATIONS.  A FINAL VERSION WITH ADDITIONAL DATA IS
      ISSUED ABOUT 10 MINUTES AFTER THE HOUR.

NMZ501-503-504-510>518-231500-
NORTHWEST PLATEAU/NORTHCENTRAL MOUNTAINS

CITY           SKY/WX    TMP DP  RH WIND       PRES   REMARKS
FARMINGTON     SUNNY     50  33  52 E5        30.00S
LOS ALAMOS     SUNNY     50  34  54 CALM      30.08S
SANTA FE       SUNNY     52  42  69 S3        30.04R
TAOS           SUNNY     48  34  57 CALM      30.08R
ANGEL FIRE     FAIR      45  33  64 CALM      30.11F

$$
NMZ402-403-502-505>509-231500-
WESTCENTRAL MOUNTAINS/SOUTHWEST MOUNTAINS

CITY           SKY/WX    TMP DP  RH WIND       PRES   REMARKS
GALLUP         MOSUNNY   48  31  51 S12       30.08R
GRANTS         MOSUNNY   47  31  54 CALM      30.09F
SILVER CITY    SUNNY     55  28  35 N5        30.09R

$$
NMZ407-409-411-412-231500-
SOUTHERN DESERTS

CITY           SKY/WX    TMP DP  RH WIND       PRES   REMARKS
LORDSBURG      FAIR      54  32  43 CALM      30.06R
DEMING         MOSUNNY   55  27  34 S5        30.05R
LAS CRUCES     MOSUNNY   59  28  30 W6        30.06R
HOLLOMAN AFB   PTSUNNY   67  31  26 SW15      30.00R
ALAMOGORDO     PTSUNNY   64  28  25 S8        30.03R
T OR C         MOSUNNY   62  27  26 S8        30.02R

$$
NMZ519>523-231500-
CENTRAL VALLEYS/CENTRAL HIGHLANDS

CITY           SKY/WX    TMP DP  RH WIND       PRES   REMARKS
ALBUQUERQUE    MOSUNNY   58  29  33 N6        30.04R
DOUBLE EAGLE   SUNNY     54  34  47 NW8       30.05R
MORIARTY ARPT  FAIR      49  38  65 S3        30.07R
CLINES CORNERS SUNNY     51  30  44 NW14      30.05R
BELEN          FAIR      59  30  32 NE6       30.04R
SOCORRO        FAIR      58  29  32 MISG      30.02S

$$
NMZ524>526-539-540-231500-
SOUTHCENTRAL MOUNTAINS

CITY           SKY/WX    TMP DP  RH WIND       PRES   REMARKS
RUIDOSO        SUNNY     55  28  35 SE10      30.12R

$$
NMZ527>531-231500-
NORTHEAST HIGHLANDS/NORTHEAST PLAINS

CITY           SKY/WX    TMP DP  RH WIND       PRES   REMARKS
LAS VEGAS      MOSUNNY   53  49  86 S9        30.04S
RATON          PTSUNNY   54  49  83 SE6       30.01S
CLAYTON        CLOUDY    54  51  90 SE9       30.02S

$$
NMZ532>537-231500-
EASTCENTRAL PLAINS

CITY           SKY/WX    TMP DP  RH WIND       PRES   REMARKS
TUCUMCARI      MOSUNNY   58  54  86 E12       29.98S
CANNON AFB     PTSUNNY   64  63  97 S10       30.00R
CLOVIS AIRPORT CLOUDY    63  61  94 S14       30.01R

$$
NMZ028-029-538-231500-
SOUTHEAST PLAINS

CITY           SKY/WX    TMP DP  RH WIND       PRES   REMARKS
ROSWELL        MOSUNNY   65  60  84 S7        29.96R
ARTESIA        SUNNY     68  59  73 SW6       29.98R
CARLSBAD       SUNNY     69  62  78 CALM      29.96R
HOBBS          SUNNY     64  64 100 S7        30.00R


$$


USA.gov is the U.S. government's official web portal to all federal, state and local government web resources and services.